SHT22B EGLL-EGJB

Flight info

Callsign SHT22B
Flight time 0h 34m
Altitude 22000
Route GASGU2J GASGU N514 EVTES/N0389F210 N621 SAM/N0384F200 N63 LELNA LELNA1V
Aircraft A319/M-SDE3FGIJ1KRWXY/LB1

Departure

Time 2026-05-07 16:09
Airport London Heathrow Airport (EGLL)

Arrival

Time 2026-05-07 16:43
Airport Guernsey Airport (EGJB)
Time Latitude Longitude Altitude Speed Heading
2026-05-07 15:34 51.47399 -0.48589 86 ft 0 kts 270°
2026-05-07 15:57 51.47400 -0.48563 87 ft 4 kts 270°
2026-05-07 15:57 51.47400 -0.48527 86 ft 2 kts 269°
2026-05-07 15:57 51.47404 -0.48490 87 ft 4 kts 228°
2026-05-07 15:58 51.47423 -0.48475 89 ft 3 kts 179°
2026-05-07 15:58 51.47437 -0.48475 87 ft 0 kts 179°
2026-05-07 16:01 51.47428 -0.48475 86 ft 3 kts 179°
2026-05-07 16:02 51.47385 -0.48474 86 ft 9 kts 179°
2026-05-07 16:02 51.47300 -0.48469 86 ft 15 kts 163°
2026-05-07 16:02 51.47229 -0.48360 86 ft 16 kts 174°
2026-05-07 16:02 51.47112 -0.48359 86 ft 18 kts 180°
2026-05-07 16:03 51.46981 -0.48358 86 ft 18 kts 178°
2026-05-07 16:03 51.46873 -0.48357 88 ft 15 kts 180°
2026-05-07 16:03 51.46770 -0.48352 86 ft 15 kts 173°
2026-05-07 16:03 51.46718 -0.48224 89 ft 14 kts 147°
2026-05-07 16:04 51.46622 -0.48213 87 ft 11 kts 180°
2026-05-07 16:04 51.46597 -0.48213 87 ft 0 kts 180°
2026-05-07 16:06 51.46596 -0.48213 87 ft 1 kts 180°
2026-05-07 16:06 51.46572 -0.48213 87 ft 6 kts 180°
2026-05-07 16:07 51.46514 -0.48213 88 ft 11 kts 178°
2026-05-07 16:07 51.46478 -0.48120 88 ft 0 kts 88°
2026-05-07 16:08 51.46479 -0.48114 88 ft 3 kts 88°
2026-05-07 16:08 51.46482 -0.47845 87 ft 53 kts 89°
2026-05-07 16:08 51.46482 -0.46945 88 ft 107 kts 89°
2026-05-07 16:09 51.46490 -0.45470 106 ft 154 kts 89°
2026-05-07 16:09 51.46502 -0.43744 647 ft 156 kts 89°
2026-05-07 16:09 51.46485 -0.41992 1291 ft 159 kts 101°
2026-05-07 16:09 51.45959 -0.40345 1667 ft 178 kts 130°
2026-05-07 16:10 51.45168 -0.38652 2047 ft 202 kts 127°
2026-05-07 16:10 51.44306 -0.36687 2486 ft 227 kts 126°
2026-05-07 16:10 51.43280 -0.34601 3031 ft 250 kts 139°
2026-05-07 16:10 51.41761 -0.33174 3899 ft 259 kts 163°
2026-05-07 16:11 51.39972 -0.32842 4893 ft 263 kts 186°
2026-05-07 16:11 51.38218 -0.33706 5671 ft 269 kts 210°
2026-05-07 16:11 51.36771 -0.35613 6483 ft 270 kts 223°
2026-05-07 16:11 51.35391 -0.37666 7468 ft 272 kts 222°
2026-05-07 16:12 51.33992 -0.39709 8442 ft 274 kts 221°
2026-05-07 16:12 51.32574 -0.41762 9394 ft 277 kts 221°
2026-05-07 16:12 51.31196 -0.43929 10305 ft 280 kts 230°
2026-05-07 16:12 51.30192 -0.46615 11128 ft 285 kts 246°
2026-05-07 16:13 51.29581 -0.49708 11626 ft 303 kts 252°
2026-05-07 16:13 51.28975 -0.53068 11901 ft 326 kts 252°
2026-05-07 16:13 51.28339 -0.56615 12467 ft 336 kts 252°
2026-05-07 16:13 51.27677 -0.60222 13190 ft 341 kts 252°
2026-05-07 16:14 51.26982 -0.63869 13921 ft 345 kts 251°
2026-05-07 16:14 51.26265 -0.67549 14588 ft 349 kts 251°
2026-05-07 16:14 51.25536 -0.71256 15281 ft 351 kts 251°
2026-05-07 16:14 51.24799 -0.74991 15974 ft 354 kts 251°
2026-05-07 16:15 51.24061 -0.78745 16657 ft 356 kts 252°
2026-05-07 16:15 51.23315 -0.82531 17344 ft 359 kts 252°
2026-05-07 16:15 51.22564 -0.86339 18039 ft 361 kts 252°
2026-05-07 16:15 51.21816 -0.90128 18666 ft 364 kts 252°
2026-05-07 16:16 51.21013 -0.93968 19250 ft 367 kts 248°
2026-05-07 16:16 51.19838 -0.97592 19851 ft 369 kts 237°
2026-05-07 16:16 51.18298 -1.00885 20451 ft 372 kts 232°
2026-05-07 16:16 51.16704 -1.04143 21044 ft 374 kts 232°
2026-05-07 16:17 51.15097 -1.07438 21616 ft 377 kts 232°
2026-05-07 16:17 51.13483 -1.10746 21975 ft 380 kts 232°
2026-05-07 16:17 51.11863 -1.14065 22050 ft 377 kts 232°
2026-05-07 16:17 51.10259 -1.17350 22054 ft 375 kts 232°
2026-05-07 16:18 51.08585 -1.20529 22054 ft 375 kts 226°
2026-05-07 16:18 51.06602 -1.23199 22055 ft 375 kts 216°
2026-05-07 16:18 51.04406 -1.25451 22057 ft 376 kts 213°
2026-05-07 16:18 51.02203 -1.27686 22057 ft 376 kts 213°
2026-05-07 16:19 50.99998 -1.29930 22057 ft 376 kts 213°
2026-05-07 16:19 50.97800 -1.32169 22057 ft 376 kts 214°
2026-05-07 16:19 50.95593 -1.34392 22056 ft 376 kts 211°
2026-05-07 16:19 50.93269 -1.36299 22057 ft 377 kts 208°
2026-05-07 16:20 50.90929 -1.38167 22058 ft 377 kts 208°
2026-05-07 16:20 50.88586 -1.40041 22059 ft 377 kts 208°
2026-05-07 16:20 50.86250 -1.41909 22061 ft 377 kts 208°
2026-05-07 16:20 50.83910 -1.43777 22063 ft 376 kts 207°
2026-05-07 16:21 50.81571 -1.45635 22064 ft 376 kts 207°
2026-05-07 16:21 50.79258 -1.47474 22064 ft 376 kts 207°
2026-05-07 16:21 50.76921 -1.49333 22064 ft 376 kts 207°
2026-05-07 16:21 50.74585 -1.51191 22062 ft 376 kts 207°
2026-05-07 16:22 50.72251 -1.53043 22062 ft 376 kts 207°
2026-05-07 16:22 50.69913 -1.54894 22061 ft 376 kts 207°
2026-05-07 16:22 50.67577 -1.56740 22061 ft 376 kts 207°
2026-05-07 16:22 50.65235 -1.58589 22060 ft 376 kts 207°
2026-05-07 16:23 50.62904 -1.60422 22052 ft 375 kts 207°
2026-05-07 16:23 50.60575 -1.62249 22049 ft 375 kts 207°
2026-05-07 16:23 50.58242 -1.64084 22048 ft 375 kts 207°
2026-05-07 16:23 50.55908 -1.65923 22048 ft 375 kts 207°
2026-05-07 16:24 50.53578 -1.67760 22045 ft 375 kts 207°
2026-05-07 16:24 50.51242 -1.69597 22045 ft 375 kts 207°
2026-05-07 16:24 50.48907 -1.71430 22043 ft 375 kts 207°
2026-05-07 16:24 50.46571 -1.73260 22044 ft 375 kts 207°
2026-05-07 16:25 50.44237 -1.75085 22044 ft 375 kts 207°
2026-05-07 16:25 50.41901 -1.76907 22045 ft 375 kts 207°
2026-05-07 16:25 50.39563 -1.78730 22040 ft 375 kts 207°
2026-05-07 16:25 50.37228 -1.80546 22045 ft 375 kts 207°
2026-05-07 16:26 50.34889 -1.82363 22049 ft 375 kts 207°
2026-05-07 16:26 50.32552 -1.84179 22051 ft 375 kts 207°
2026-05-07 16:26 50.30220 -1.85992 22051 ft 375 kts 207°
2026-05-07 16:26 50.28669 -1.87197 22052 ft 374 kts 207°
2026-05-07 16:27 50.25551 -1.89624 22051 ft 374 kts 207°
2026-05-07 16:27 50.23224 -1.91432 22051 ft 374 kts 207°
2026-05-07 16:27 50.20920 -1.93216 22050 ft 374 kts 207°
2026-05-07 16:27 50.18556 -1.95038 22050 ft 374 kts 207°
2026-05-07 16:28 50.16223 -1.96831 22042 ft 374 kts 207°
2026-05-07 16:28 50.13889 -1.98625 22043 ft 374 kts 207°
2026-05-07 16:28 50.11560 -2.00413 22041 ft 373 kts 207°
2026-05-07 16:28 50.09258 -2.02183 22037 ft 373 kts 207°
2026-05-07 16:29 50.06929 -2.03978 22037 ft 373 kts 207°
2026-05-07 16:29 50.04606 -2.05764 22036 ft 373 kts 207°
2026-05-07 16:29 50.02274 -2.07555 22035 ft 373 kts 207°
2026-05-07 16:29 49.99954 -2.09369 22004 ft 372 kts 209°
2026-05-07 16:30 49.97821 -2.11637 21352 ft 374 kts 221°
2026-05-07 16:30 49.96024 -2.14529 20862 ft 371 kts 229°
2026-05-07 16:30 49.94338 -2.17540 20386 ft 366 kts 228°
2026-05-07 16:30 49.92659 -2.20489 19900 ft 363 kts 228°
2026-05-07 16:31 49.90992 -2.23389 19417 ft 359 kts 228°
2026-05-07 16:31 49.89330 -2.26271 18920 ft 356 kts 228°
2026-05-07 16:31 49.87692 -2.29113 18433 ft 352 kts 228°
2026-05-07 16:31 49.86067 -2.31934 17895 ft 349 kts 228°
2026-05-07 16:32 49.84460 -2.34724 17402 ft 344 kts 228°
2026-05-07 16:32 49.82874 -2.37478 16917 ft 340 kts 228°
2026-05-07 16:32 49.81310 -2.40192 16439 ft 336 kts 228°
2026-05-07 16:32 49.79766 -2.42868 15963 ft 332 kts 228°
2026-05-07 16:33 49.78232 -2.45529 15489 ft 329 kts 228°
2026-05-07 16:33 49.76735 -2.48119 15024 ft 326 kts 228°
2026-05-07 16:33 49.75208 -2.50756 14550 ft 324 kts 228°
2026-05-07 16:33 49.73711 -2.53338 14084 ft 322 kts 227°
2026-05-07 16:34 49.72191 -2.55815 13596 ft 320 kts 222°
2026-05-07 16:34 49.70587 -2.58218 13040 ft 322 kts 225°
2026-05-07 16:34 49.69030 -2.60686 12536 ft 319 kts 225°
2026-05-07 16:34 49.67495 -2.63145 11990 ft 314 kts 225°
2026-05-07 16:35 49.65998 -2.65566 11230 ft 310 kts 225°
2026-05-07 16:35 49.64530 -2.67974 10497 ft 306 kts 225°
2026-05-07 16:35 49.63114 -2.70334 10233 ft 289 kts 225°
2026-05-07 16:35 49.61796 -2.72555 9961 ft 274 kts 225°
2026-05-07 16:36 49.60527 -2.74709 9429 ft 269 kts 225°
2026-05-07 16:36 49.59274 -2.76841 8839 ft 267 kts 225°
2026-05-07 16:36 49.58031 -2.78955 8254 ft 266 kts 225°
2026-05-07 16:36 49.56792 -2.81058 7662 ft 264 kts 225°
2026-05-07 16:37 49.55557 -2.83146 7105 ft 263 kts 225°
2026-05-07 16:37 49.54326 -2.85223 6544 ft 262 kts 225°
2026-05-07 16:37 49.53099 -2.87291 5968 ft 261 kts 225°
2026-05-07 16:37 49.51845 -2.89294 5387 ft 258 kts 216°
2026-05-07 16:38 49.50253 -2.90403 4828 ft 251 kts 188°
2026-05-07 16:38 49.48517 -2.90623 4236 ft 250 kts 181°
2026-05-07 16:38 49.46779 -2.90668 3655 ft 249 kts 174°
2026-05-07 16:38 49.45156 -2.89876 3226 ft 241 kts 149°
2026-05-07 16:39 49.43923 -2.88292 3096 ft 224 kts 130°
2026-05-07 16:39 49.43147 -2.86280 2966 ft 216 kts 112°
2026-05-07 16:39 49.42832 -2.84062 2836 ft 211 kts 95°
2026-05-07 16:39 49.42872 -2.81839 2692 ft 203 kts 90°
2026-05-07 16:40 49.42915 -2.80430 2632 ft 195 kts 90°
2026-05-07 16:40 49.42975 -2.78432 2505 ft 182 kts 91°
2026-05-07 16:40 49.43048 -2.75929 2204 ft 172 kts 91°
2026-05-07 16:40 49.43100 -2.74130 1977 ft 166 kts 91°
2026-05-07 16:41 49.43151 -2.72402 1763 ft 156 kts 91°
2026-05-07 16:41 49.43182 -2.71327 1638 ft 142 kts 91°
2026-05-07 16:41 49.43223 -2.69916 1441 ft 129 kts 91°
2026-05-07 16:41 49.43261 -2.68555 1266 ft 124 kts 91°
2026-05-07 16:42 49.43298 -2.67229 1083 ft 126 kts 90°
2026-05-07 16:42 49.43335 -2.65895 932 ft 127 kts 89°
2026-05-07 16:42 49.43376 -2.64549 741 ft 126 kts 88°
2026-05-07 16:42 49.43411 -2.63218 605 ft 124 kts 87°
2026-05-07 16:43 49.43451 -2.61903 410 ft 123 kts 85°
2026-05-07 16:43 49.43486 -2.60626 309 ft 110 kts 87°
2026-05-07 16:43 49.43502 -2.59900 322 ft 17 kts 108°
2026-05-07 16:43 49.43405 -2.59858 325 ft 15 kts 176°
2026-05-07 16:44 49.43349 -2.59786 328 ft 8 kts 82°
2026-05-07 16:44 49.43353 -2.59698 326 ft 7 kts 129°
2026-05-07 16:44 49.43307 -2.59688 329 ft 3 kts 178°
2026-05-07 16:44 49.43278 -2.59686 328 ft 6 kts 177°
2026-05-07 16:45 49.43255 -2.59684 328 ft 0 kts 177°